Вернуться в каталог

SL-14 DEB

АктивенPO
NORAD 19143·DEBRIS·🇷🇺 Russia

Запущен Oct 26, 1978 с Plesetsk Cosmodrome

Loading…

Ближайшие Пролёты (ближайшие 24 часа)

TLE

СвежийSource: Space-Track

Эпоха: Sep 14, 2026, 14:50 UTC

1 19143U 78100P   26257.61808433  .00002061  00000-0  83182-2 0  9992
2 19143  81.6952   7.5113 0324716 213.3087 158.5091 12.70492146769147

Отслеживайте SL-14 DEB в реальном времени с AllMySat

Download on the App Store